Weather History for Kenosha, WI

Change the Weather History Date:

Monday, December 31, 2012

  Actual Average Record
Temperature  
Mean Temperature 24 °F -  
Max Temperature 33 °F 30 °F 59 °F (1965)
Min Temperature 14 °F 14 °F -13 °F (1968)
Degree Days  
Heating Degree Days 41    
Moisture  
Dew Point 18 °F    
Average Humidity 69    
Maximum Humidity 74    
Minimum Humidity 64    
Precipitation  
Precipitation 0.00 in - - ()
Sea Level Pressure  
Sea Level Pressure 30.05 in    
Wind  
Wind Speed 13 mph (WNW)    
Max Wind Speed 18 mph    
Max Gust Speed 30 mph    
Visibility 9 miles    
Events      
Averages and records for this station are not official NWS values.
T = Trace of Precipitation, MM = Missing Value Source: NWS Daily Summary

Daily Weather History Graph

Daily Weather History Graph

Search for Another Location

Airport:

Trip Planner

Search our weather history database for the weather conditions in past years. The results will help you decide how hot, cold, wet, or windy it might be!

Date:

Astronomy

Dec. 31, 2012 Rise Set
Actual Time 7:21 AM CST 4:28 PM CST
Civil Twilight 6:49 AM CST 5:00 PM CST
Nautical Twilight 6:14 AM CST 5:36 PM CST
Astronomical Twilight 5:40 AM CST 6:10 PM CST
Moon 8:03 PM CST (12/31) 8:58 AM CST (12/31)
Length of Visible Light 10h 10m
Length of Day
9h 06m
Waning Gibbous, 90% of the Moon is Illuminated
Dec 31
Waning Gibbous
Jan 4
Last Quarter
Jan 11
New
Jan 18
First Quarter
Jan 26
Full

Hourly Weather History & Observations

Time (CST) Temp. Windchill Dew Point Humidity Pressure Visibility Wind Dir Wind Speed Gust Speed Precip Events Conditions
12:53 AM 33.1 °F 23.9 °F 21.9 °F 64% 30.01 in 10.0 mi SW 12.7 mph 21.9 mph N/A   Clear
1:53 AM 33.1 °F 22.6 °F 23.0 °F 66% 30.00 in 10.0 mi SW 16.1 mph 29.9 mph N/A   Clear
2:53 AM 33.1 °F 22.6 °F 21.9 °F 64% 29.99 in 10.0 mi SW 16.1 mph 21.9 mph N/A   Clear
3:53 AM 32.0 °F 20.5 °F 21.9 °F 66% 29.99 in 10.0 mi WSW 18.4 mph - N/A   Clear
4:53 AM 33.1 °F 22.6 °F 23.0 °F 66% 29.99 in 10.0 mi WSW 16.1 mph - N/A   Clear
5:53 AM 33.1 °F 22.6 °F 23.0 °F 66% 29.99 in 10.0 mi West 16.1 mph - N/A   Clear
6:53 AM 32.0 °F 22.1 °F 23.0 °F 69% 30.00 in 10.0 mi West 13.8 mph - N/A   Clear
7:53 AM 30.9 °F 22.2 °F 21.9 °F 69% 30.01 in 10.0 mi West 10.4 mph - N/A   Clear
8:53 AM 30.0 °F 20.5 °F 21.9 °F 72% 30.04 in 10.0 mi West 11.5 mph - N/A   Clear
9:53 AM 30.0 °F 21.7 °F 21.0 °F 69% 30.04 in 10.0 mi West 9.2 mph - N/A   Clear
10:53 AM 28.9 °F 19.2 °F 19.9 °F 69% 30.03 in 10.0 mi WNW 11.5 mph - N/A   Clear
11:53 AM 28.9 °F 19.2 °F 21.0 °F 72% 30.02 in 10.0 mi WNW 11.5 mph - N/A   Clear
12:53 PM 28.0 °F 18.1 °F 19.0 °F 69% 30.02 in 9.0 mi WNW 11.5 mph 18.4 mph N/A   Clear
1:53 PM 27.0 °F 16.7 °F 18.0 °F 69% 30.04 in 8.0 mi WNW 11.5 mph - N/A   Clear
2:53 PM 26.1 °F 15.6 °F 17.1 °F 69% 30.05 in 5.0 mi WNW 11.5 mph - N/A   Haze
3:53 PM 24.1 °F 12.5 °F 16.0 °F 71% 30.06 in 4.0 mi WNW 12.7 mph - N/A   Haze
4:25 PM 23.0 °F 13.1 °F 15.8 °F 74% 30.03 in 5.0 mi NW 9.2 mph - N/A   Haze
4:53 PM 23.0 °F 13.9 °F 15.1 °F 72% 30.08 in 6.0 mi NW 8.1 mph - N/A   Haze
5:53 PM 19.9 °F 7.3 °F 12.0 °F 71% 30.10 in 7.0 mi NNW 12.7 mph - N/A   Mostly Cloudy
7:53 PM 17.1 °F 8.7 °F 10.0 °F 74% 30.13 in 8.0 mi NW 5.8 mph - N/A   Clear
8:53 PM 17.1 °F 7.6 °F 10.0 °F 74% 30.14 in 8.0 mi WNW 6.9 mph - N/A   Clear
10:53 PM 15.1 °F 7.7 °F 7.0 °F 70% 30.16 in 10.0 mi NW 4.6 mph - N/A   Partly Cloudy
11:53 PM 14.0 °F 3.9 °F 5.0 °F 67% 30.16 in 10.0 mi NW 6.9 mph - N/A   Mostly Cloudy